Location: Roland
(31.1349°N, 85.4372°W)
Time: 04:44:37
(UTC+00:00)

Vanguard 2 Rocket - Pass Details

Date: 02 December 2021
Orbit: 554 x 3324 km, 32.9° (Epoch: 16 January)

Event Time Altitude Azimuth Distance (km) Brightness Sun altitude
Rises 02:54:01 0° 279° (W) 4,231 10.9 -53.9°
Reaches altitude 10° 02:56:22 10° 279° (W) 3,531 10.3 -54.4°
Enters shadow 02:59:19 27° 281° (W) 2,758 9.5 -55.0°
